Regional Weather Roundup
Issued by NWS

Home | Current Version | Previous Version | Graphics & Text | Print | Product List | Glossary Off
Versions: 1 2 3 4 5 6 7 8 9 10 11 12 13 14 15 16 17 18 19 20 21 22 23 24 25 26 27 28 29 30 31 32 33 34 35 36 37 38 39 40 41 42 43 44 45 46 47 48 49 50

711
ASUS43 KMKX 131159
RWRWI

WISCONSIN REGIONAL WEATHER ROUNDUP
NATIONAL WEATHER SERVICE MILWAUKEE/SULLIVAN WI
600 AM CST WED DEC 13 2017

NOTE: "FAIR" INDICATES FEW OR NO CLOUDS BELOW 12,000 FEET WITH NO
SIGNIFICANT WEATHER AND/OR OBSTRUCTIONS TO VISIBILITY.

WIZ001-002-006>008-014>016-023>028-131300-
NORTHWEST WISCONSIN

CITY           SKY/WX    TMP DP  RH WIND       PRES   REMARKS
SUPERIOR ARPT  LGT SNOW  18  16  92 E8        29.45F VSB 3/4 WCI   8
ASHLAND        SNOW      16  12  84 NE8       29.48S VSB 1/2 WCI   5
6HR MIN TEMP:  13; 6HR MAX TEMP:  16; 6HR PCP:  0.14;

HAYWARD        SNOW      18  13  80 SE6       29.40S VSB 1/2 WCI  10
6HR MIN TEMP:  15; 6HR MAX TEMP:  18; 6HR PCP:  0.07;

SIREN          CLOUDY    21  17  85 E3        29.38F
CUMBERLAND     CLOUDY    19  14  79 SE8       29.37F WCI   9
RICE LAKE      CLOUDY    21  16  83 CALM      29.41F
CHETEK         CLOUDY    20  16  83 SE10      29.40F WCI   9
LADYSMITH      LGT SNOW  19  16  88 SE6       29.44F WCI  10
EAU CLAIRE     NOT AVBL
MENOMONIE      CLOUDY    22  17  80 E9        29.38F WCI  12
NEW RICHMOND   CLOUDY    22  17  79 E7        29.36F WCI  14
OSCEOLA        CLOUDY    22  18  81 E10       29.38F WCI  12
$$

WIZ003>005-009-010-017-018-131300-
NORTH CENTRAL WISCONSIN

CITY           SKY/WX    TMP DP  RH WIND       PRES   REMARKS
MANITOWISH WTR LGT SNOW  11  10  95 SE8       29.44F VSB 1   WCI   0
ARBOR VITAE    LGT SNOW  14  11  87 SE10      29.45F VSB 3/4 WCI   1
WOODRUFF       LGT SNOW  14  11  87 SE10      29.45F VSB 3/4 WCI   1
RHINELANDER    SNOW      11   9  92 E14       29.46F VSB 1/2 WCI  -5
6HR MIN TEMP:  10; 6HR MAX TEMP:  12; 6HR PCP:  0.05;

EAGLE RIVER    LGT SNOW  10   6  82 E10       29.48F WCI  -3
6HR MIN TEMP:  10; 6HR MAX TEMP:  11;

LAND O LAKES   LGT SNOW  10   7  85 SE12      29.50F VSB 3/4 WCI  -4
PHILLIPS       LGT SNOW  13  11  90 E8        29.41F WCI   2
TOMAHAWK       LGT SNOW  13  10  86 E6        29.46F WCI   4
MEDFORD        FLURRIES  15  12  88 SE9       29.42S WCI   3
MERRILL        LGT SNOW  14  10  87 SE8       29.49F WCI   2
$$

WIZ029-030-035-036-043>047-131300-
CENTRAL WISCONSIN

CITY           SKY/WX    TMP DP  RH WIND       PRES   REMARKS
WAUSAU         LGT SNOW  14  11  87 E9        29.46F FOG     WCI   2
6HR MIN TEMP:  12; 6HR MAX TEMP:  14; 6HR PCP:  0.01;

MOSINEE        LGT SNOW  14  12  92 E12G17    29.46F WCI   0
MARSHFIELD     CLOUDY    17  14  88 SE12      29.41F WCI   4
6HR MIN TEMP:  15; 6HR MAX TEMP:  17; 6HR PCP: TRACE;

STEVENS POINT  FLURRIES  15  11  86 E10       29.50F WCI   2
WAUPACA        LGT SNOW  20  13  76 E8        29.55F WCI  10
WAUTOMA        FLURRIES  19  16  88 E9        29.49F WCI   8
6HR MIN TEMP:  15; 6HR MAX TEMP:  20;

WISC RAPIDS    CLOUDY    19  14  81 SE10      29.46F WCI   7
6HR MIN TEMP:  15; 6HR MAX TEMP:  19; 6HR PCP: TRACE;

CAMP DOUGLAS   CLOUDY    24  16  71 SE7       29.42F WCI  16
6HR MIN TEMP:  16; 6HR MAX TEMP:  24; 6HR PCP: TRACE;

$$

WIZ011>013-019>022-031-037>040-048>050-131300-
NORTHEAST WISCONSIN

CITY           SKY/WX    TMP DP  RH WIND       PRES   REMARKS
ANTIGO         LGT SNOW  10   8  91 SE12      29.51F WCI  -4
SHAWANO        CLOUDY    17  12  82 E9        29.59F WCI   5
6HR MIN TEMP:  16; 6HR MAX TEMP:  17;

OCONTO         CLOUDY    15  11  83 SE9       29.64F WCI   3
STURGEON BAY   LGT SNOW  16  11  80 SE5       29.63F WCI   9
6HR MIN TEMP:  14; 6HR MAX TEMP:  16; 6HR PCP: TRACE;

GREEN BAY      CLOUDY    18  13  80 E7        29.60F WCI   9
6HR MIN TEMP:  16; 6HR MAX TEMP:  18; 6HR PCP:  0.03;

MANITOWOC      CLOUDY    23  21  92 SE15      29.60F WCI  10
6HR MIN TEMP:  15; 6HR MAX TEMP:  23; 6HR PCP:  0.02;

APPLETON       CLOUDY    18  10  73 E8        29.54F WCI   7
CLINTONVILLE   CLOUDY    16  12  86 E7        29.58F WCI   6
OSHKOSH        LGT SNOW  20  12  71 SE9       29.54F WCI   9
6HR MIN TEMP:  15; 6HR MAX TEMP:  20; 6HR PCP: TRACE;

$$

WIZ032>034-041-042-053>061-131300-
SOUTHWEST WISCONSIN

CITY           SKY/WX    TMP DP  RH WIND       PRES   REMARKS
LA CROSSE      CLOUDY    29  22  75 S9        29.40F WCI  20
6HR MIN TEMP:  26; 6HR MAX TEMP:  29;

SPARTA         CLOUDY    28  20  73 S5        29.43F WCI  23
VIROQUA        CLOUDY    24  20  84 SE9       29.41F WCI  15
BOSCOBEL       CLOUDY    29  18  63 SW5       29.46F WCI  24
6HR MIN TEMP:  25; 6HR MAX TEMP:  29;

PRAIRIE DU CHI CLOUDY    31  20  64 SE8       29.44F WCI  23
PLATTEVILLE    CLOUDY    28  20  72 S14       29.48F WCI  17
$$

WIZ056-057-062-063-064-067-068-131300-
SOUTH CENTRAL WISCONSIN

CITY           SKY/WX    TMP DP  RH WIND       PRES   REMARKS
REEDSBURG      CLOUDY    26  16  66 SE7       29.44F WCI  18
6HR MIN TEMP:  21; 6HR MAX TEMP:  26;

BARABOO/DELLS  CLOUDY    26  15  65 S9G16     29.46F WCI  16
LONE ROCK      NOT AVBL
MINERAL POINT  CLOUDY    28  19  69 S12       29.47F WCI  18
MADISON        CLOUDY    25  14  63 S17       29.49F WCI  12
6HR MIN TEMP:  21; 6HR MAX TEMP:  26;

MIDDLETON      CLOUDY    28  16  62 S9        29.52F WCI  19
WATERTOWN      LGT SNOW  22  16  76 SE9G16    29.57F WCI  12
MONROE         CLOUDY    27  16  63 S18       29.51F WCI  13
JANESVILLE     CLOUDY    28  16  59 S15       29.58F WCI  17
$$

WIZ051-052-058>065-066-070>072-131300-
SOUTHEAST WISCONSIN

CITY           SKY/WX    TMP DP  RH WIND       PRES   REMARKS
MILWAUKEE      FLURRIES  24  11  57 S10       29.62F WCI  14
6HR MIN TEMP:  20; 6HR MAX TEMP:  24; 6HR PCP: TRACE;

WAUKESHA       LGT SNOW  19  12  73 SE9       29.60F VSB 1   WCI   9
MILWAUKEE/TIMM CLOUDY    23  10  58 S12       29.63F WCI  12
RACINE         CLOUDY    25   9  50 S12       29.65F WCI  14
6HR MIN TEMP:  19; 6HR MAX TEMP:  25;

BURLINGTON       N/A    N/A N/A N/A MISG        N/A
KENOSHA        FLURRIES  24  10  55 S12G22    29.63F WCI  13
6HR MIN TEMP:  20; 6HR MAX TEMP:  24; 6HR PCP: TRACE;

FOND DU LAC    LGT SNOW  21  12  68 S18       29.53F WCI   6
6HR MIN TEMP:  17; 6HR MAX TEMP:  22; 6HR PCP: TRACE;

SHEBOYGAN      CLOUDY    23  17  78 S9        29.59F WCI  13
6HR MIN TEMP:  16; 6HR MAX TEMP:  23; 6HR PCP:  0.01;

WEST BEND      CLOUDY    21  10  63 SE6       29.59F WCI  14
JUNEAU         LGT SNOW  20  15  79 SE13G18   29.57F WCI   8
$$

LSZ147-162-131300-
LAKE SUPERIOR

STATION/POSITION TIME  TEMP    WIND        PRES    WAVE
                       AIR SEA DIR/SP/G            HT/PER
                 (UTC) (F)     (DEG/KT/KT) (MB)    (FT/S)
DEVILS ISLAND    1100   21     100/ 18/ 20 1000.7F
SAXON HARBOR     1130   17                  998.6F
$$

LMZ867-665-643>646-131300-
LAKE MICHIGAN

STATION/POSITION TIME  TEMP    WIND        PRES    WAVE
                       AIR SEA DIR/SP/G            HT/PER
                 (UTC) (F)     (DEG/KT/KT) (MB)    (FT/S)
NORTHPORT PIER   1140   19     150/  5/  9 1005.1F
KEWAUNEE LAKESHO 1130   21     150/ 13/ 16 1003.3F
SHEBOYGAN LAKESH 1100   25     170/ 20/ 24 1004.9F
PORT WASHINGTON  1130   27     190/ 14/ 22 1004.1F
MILWAUKEE LAKESH 1130   24     190/ 13/ 15   N/A
KENOSHA   LAKESH 1100   24     190/ 16/ 20 1005.8
$$

TC  - TEMPERATURE IN CELSIUS
VSB - VISIBILITY IN STATUTE MILES
WCI - WIND CHILL INDEX
HX  - HEAT INDEX





USA.gov is the U.S. government's official web portal to all federal, state and local government web resources and services.